This demonstration page uses our WeatherBlox Daily Observations layout. Learn more.

Left ArrowRight Arrow

41.86663, -103.66717

Hourly Observations for July 23, 2020

Temp ( °F °C ) Dew Point ( °F °C ) Humidity (%) Winds ( mph kmh ) Pressure ( in mb ) Visibility ( mi km ) Precip ( " mm )
12:53 am 00:53 Clear 73 22.8 66 18.9 79 79 E 5 7 29.78 1008 10 16 N/A
1:53 am 01:53 Clear 72 22.2 65 18.3 79 79 NE 7 11 29.75 1008 10 16 N/A
2:53 am 02:53 Clear 70 21.1 64 17.8 82 82 E 6 9 29.77 1008 10 16 N/A
3:53 am 03:53 Clear 69 20.6 64 17.8 84 84 ESE 5 7 29.78 1008 10 16 N/A
4:53 am 04:53 Clear 68 20 65 18.3 90 90 E 5 7 29.78 1009 10 16 N/A
5:53 am 05:53 Sunny 68 20 65 18.3 90 90 W 3 6 29.80 1009 10 16 N/A
6:53 am 06:53 Sunny 69 20.6 65 18.3 87 87 SSW 7 11 29.82 1010 10 16 N/A
7:53 am 07:53 Sunny 75 23.9 65 18.3 71 71 WSW 6 9 29.82 1010 10 16 N/A
8:53 am 08:53 Sunny 81 27.2 61 16.1 51 51 W 7 11 29.81 1010 10 16 N/A
9:53 am 09:53 Sunny 87 30.6 54 12.2 32 32 W 10 17 29.80 1009 10 16 N/A
10:53 am 10:53 Sunny 90 32.2 50 10 25 25 W 10 17 29.80 1009 10 16 N/A
11:53 am 11:53 Sunny 93 33.9 49 9.4 22 22 WNW 12 19 29.80 1009 10 16 N/A
12:53 pm 12:53 Sunny 95 35 51 10.6 23 23 VRB 3 6 29.79 1009 10 16 N/A
1:53 pm 13:53 Sunny 97 36.1 47 8.3 18 18 SSE 6 9 29.77 1008 10 16 N/A
2:53 pm 14:53 Sunny 98 36.7 48 8.9 18 18 SSE 8 13 29.75 1008 10 16 N/A
3:53 pm 15:53 Sunny 98 36.7 50 10 20 20 E 9 15 29.74 1007 10 16 N/A
4:53 pm 16:53 Sunny 98 36.7 47 8.3 17 17 S 9 15 29.72 1007 10 16 N/A
5:53 pm 17:53 Sunny 96 35.6 54 12.2 24 24 WNW 5 7 29.72 1007 10 16 N/A
6:53 pm 18:53 Sunny 93 33.9 50 10 23 23 SSE 7 11 29.73 1007 10 16 N/A
7:53 pm 19:53 Mostly Cloudy 88 31.1 57 13.9 35 35 SW 12 19 29.75 1008 10 16 N/A
8:53 pm 20:53 Clear 81 27.2 54 12.2 39 39 SE 3 6 29.80 1009 10 16 N/A
9:53 pm 21:53 Clear 80 26.7 59 15 49 49 SSE 12 19 29.81 1010 10 16 N/A
10:53 pm 22:53 Clear 77 25 60 15.6 56 56 SE 7 11 29.80 1009 10 16 N/A
11:53 pm 23:53 Clear 77 25 61 16.1 58 58 SE 8 13 29.80 1009 10 16 N/A

Powered by AerisWeather